Simultaneous Nadir Overpasses (SNOs) Predictions

Prediction of SNOs between AQUA and METOP-C Satellite Orbit:

Table of predicted SNOs for the next 14.0 days since TLE Epoch: 10/5/2024
Index Date (AQUA) Time (AQUA) Lat,Lon (AQUA) SZA (AQUA ) Date (METOP-C) Time (METOP-C) Lat,Lon (METOP-C) SZA (METOP-C ) Distance(km) Time Diff (sec)
1 10/05/2024 17:49:17 75.70, -87.50 80.77 10/05/2024 17:48:23 75.73, -87.52 80.79 2.64 54
2 10/05/2024 18:38:38 -75.77, 79.96 99.16 10/05/2024 18:39:03 -75.79, 80.00 99.14 2.15 25
3 10/08/2024 08:19:20 75.72, 54.98 81.78 10/08/2024 08:18:39 75.72, 54.89 81.78 2.63 41
4 10/08/2024 09:08:41 -75.79,-137.55 98.14 10/08/2024 09:09:19 -75.79,-137.57 98.15 0.68 38
5 10/10/2024 22:49:18 75.77,-162.60 82.82 10/10/2024 22:48:53 75.76,-162.53 82.81 2.08 25
6 10/10/2024 23:38:38 -75.79, 5.03 97.16 10/10/2024 23:39:34 -75.79, 4.89 97.15 3.86 56
7 10/13/2024 12:29:44 -75.55, 172.97 96.43 10/13/2024 12:28:33 -75.50, 171.75 96.50 34.64 71
8 10/13/2024 13:19:10 75.80, -20.09 83.82 10/13/2024 13:19:07 75.77, -20.06 83.80 3.03 3
9 10/13/2024 14:08:33 -75.96, 147.09 96.02 10/13/2024 14:09:44 -75.99, 147.98 95.97 24.28 71
10 10/16/2024 02:59:34 -75.75, -44.99 95.28 10/16/2024 02:58:41 -75.75, -45.00 95.27 0.81 53
11 10/16/2024 03:48:56 75.80, 122.51 84.79 10/16/2024 03:49:20 75.78, 122.43 84.78 2.85 24
12 10/18/2024 17:29:14 -75.77, 97.57 94.30 10/18/2024 17:28:52 -75.78, 97.54 94.30 1.33 22



Historial Predications of SNOs between AQUA and METOP-C
